9A4AM-13 Weather Reports


Display with metric or nautical units.
time (UTC)temp
F
wind
direction
speed
MPH
gust
MPH
rain 1hr
in
rain 24hr
in
rain mn
in
humidity
%
barometer
mb
20260906014021 71 0.0 0.0 0.00 0.00 0.00 10 1029.0
20260906013021 71 0.0 0.0 0.00 0.00 0.00 10 1029.0
20260906012021 70 0.0 0.0 0.00 0.00 0.00 10 1029.1
20260906011021 71 0.0 0.0 0.00 0.00 0.00 10 1029.0
20260906010021 71 0.0 0.0 0.00 0.00 0.00 10 1028.9
20260906005021 71 0.0 0.0 0.00 0.00 0.00 10 1028.8
20260906004021 71 0.0 0.0 0.00 0.00 0.00 10 1028.7
20260906003021 70 0.0 0.0 0.00 0.00 0.00 10 1028.7
20260906002021 70 0.0 0.0 0.00 0.00 0.00 10 1028.6
20260906001021 71 0.0 0.0 0.00 0.00 0.00 10 1028.6
20260906000021 72 0.0 0.0 0.00 0.00 0.00 10 1028.4
20260905235021 72 0.0 0.0 0.00 0.00 0.00 10 1028.4
20260905234021 72 0.0 0.0 0.00 0.00 0.00 10 1028.3
20260905233021 72 0.0 0.0 0.00 0.00 0.00 10 1028.2
20260905232021 72 0.0 0.0 0.00 0.00 0.00 10 1028.1
20260905231021 72 0.0 0.0 0.00 0.00 0.00 10 1028.1
20260905230021 72 0.0 0.0 0.00 0.00 0.00 10 1028.2
20260905225021 72 0.0 0.0 0.00 0.00 0.00 10 1028.2
20260905224021 72 0.0 0.0 0.00 0.00 0.00 10 1028.2
20260905223021 73 0.0 0.0 0.00 0.00 0.00 10 1028.1
20260905222021 73 0.0 0.0 0.00 0.00 0.00 10 1028.0
20260905221021 73 0.0 0.0 0.00 0.00 0.00 10 1027.9
20260905220021 73 0.0 0.0 0.00 0.00 0.00 10 1027.9
20260905215021 73 0.0 0.0 0.00 0.00 0.00 10 1027.8
20260905214021 73 0.0 0.0 0.00 0.00 0.00 10 1027.7
20260905213020 73 0.0 0.0 0.00 0.00 0.00 10 1027.6
20260905212021 73 0.0 0.0 0.00 0.00 0.00 10 1027.6
20260905211020 73 0.0 0.0 0.00 0.00 0.00 10 1027.5
20260905210020 73 0.0 0.0 0.00 0.00 0.00 10 1027.3
20260905205020 73 0.0 0.0 0.00 0.00 0.00 10 1027.3
20260905204020 73 0.0 0.0 0.00 0.00 0.00 10 1027.2
20260905203021 74 0.0 0.0 0.00 0.00 0.00 10 1027.1
20260905202020 74 0.0 0.0 0.00 0.00 0.00 10 1027.0
20260905201020 74 0.0 0.0 0.00 0.00 0.00 10 1026.9
20260905200020 75 0.0 0.0 0.00 0.00 0.00 10 1026.8
20260905195020 75 0.0 0.0 0.00 0.00 0.00 10 1026.5
20260905194020 75 0.0 0.0 0.00 0.00 0.00 10 1026.5
20260905193020 76 0.0 0.0 0.00 0.00 0.00 10 1026.6
20260905192020 76 0.0 0.0 0.00 0.00 0.00 10 1026.4
20260905191020 76 0.0 0.0 0.00 0.00 0.00 10 1026.4
20260905190020 76 0.0 0.0 0.00 0.00 0.00 10 1026.2
20260905185020 77 0.0 0.0 0.00 0.00 0.00 10 1026.0
20260905184020 76 0.0 0.0 0.00 0.00 0.00 10 1025.8
20260905183020 76 0.0 0.0 0.00 0.00 0.00 10 1025.7
20260905182020 76 0.0 0.0 0.00 0.00 0.00 10 1025.6
20260905181020 77 0.0 0.0 0.00 0.00 0.00 10 1025.4
20260905180020 77 0.0 0.0 0.00 0.00 0.00 10 1025.2
20260905175020 77 0.0 0.0 0.00 0.00 0.00 99 1025.0
20260905174020 78 0.0 0.0 0.00 0.00 0.00 98 1024.8
20260905173020 78 0.0 0.0 0.00 0.00 0.00 97 1024.7
20260905172020 78 0.0 0.0 0.00 0.00 0.00 95 1024.8
20260905171020 79 0.0 0.0 0.00 0.00 0.00 92 1024.8
20260905170020 79 0.0 0.0 0.00 0.00 0.00 90 1024.6
20260905165020 80 0.0 0.0 0.00 0.00 0.00 88 1024.3
20260905164020 81 0.0 0.0 0.00 0.00 0.00 83 1024.2
20260905163020 81 0.0 0.0 0.00 0.00 0.00 80 1024.0
20260905162020 82 0.0 0.0 0.00 0.00 0.00 77 1023.9
20260905161020 82 0.0 0.0 0.00 0.00 0.00 74 1023.9
20260905160020 83 0.0 0.0 0.00 0.00 0.00 72 1023.9
20260905155020 84 0.0 0.0 0.00 0.00 0.00 69 1023.7
20260905154020 85 0.0 0.0 0.00 0.00 0.00 67 1023.6
20260905153020 85 0.0 0.0 0.00 0.00 0.00 67 1023.6
20260905152020 87 0.0 0.0 0.00 0.00 0.00 66 1023.5
20260905151022 87 0.0 0.0 0.00 0.00 0.00 65 1023.4
20260905150020 88 0.0 0.0 0.00 0.00 0.00 65 1023.4
20260905145020 88 0.0 0.0 0.00 0.00 0.00 64 1023.3
20260905144020 89 0.0 0.0 0.00 0.00 0.00 65 1023.2
20260905143019 89 0.0 0.0 0.00 0.00 0.00 65 1023.1
20260905142019 90 0.0 0.0 0.00 0.00 0.00 64 1023.1
20260905141019 91 0.0 0.0 0.00 0.00 0.00 61 1022.9
20260905140019 93 0.0 0.0 0.00 0.00 0.00 60 1023.0
20260905135019 92 0.0 0.0 0.00 0.00 0.00 61 1022.8
20260905134019 93 0.0 0.0 0.00 0.00 0.00 60 1022.8
20260905133020 92 0.0 0.0 0.00 0.00 0.00 61 1022.7
20260905132019 93 0.0 0.0 0.00 0.00 0.00 62 1022.8
20260905131019 95 0.0 0.0 0.00 0.00 0.00 61 1022.8
20260905130019 94 0.0 0.0 0.00 0.00 0.00 64 1022.8
20260905125019 93 0.0 0.0 0.00 0.00 0.00 65 1023.0
20260905124019 95 0.0 0.0 0.00 0.00 0.00 64 1023.3
20260905123019 93 0.0 0.0 0.00 0.00 0.00 64 1023.5
20260905122019 94 0.0 0.0 0.00 0.00 0.00 66 1023.4
20260905121019 91 0.0 0.0 0.00 0.00 0.00 67 1023.6
20260905120019 92 0.0 0.0 0.00 0.00 0.00 64 1023.8
20260905115019 94 0.0 0.0 0.00 0.00 0.00 64 1023.7
20260905114019 92 0.0 0.0 0.00 0.00 0.00 66 1023.8
20260905113019 93 0.0 0.0 0.00 0.00 0.00 68 1023.9
20260905112019 93 0.0 0.0 0.00 0.00 0.00 68 1023.9
20260905111019 93 0.0 0.0 0.00 0.00 0.00 68 1023.7
20260905110019 92 0.0 0.0 0.00 0.00 0.00 75 1023.9
20260905105019 92 0.0 0.0 0.00 0.00 0.00 73 1023.7
20260905104019 91 0.0 0.0 0.00 0.00 0.00 80 1023.6
20260905103019 91 0.0 0.0 0.00 0.00 0.00 86 1023.7
20260905102019 90 0.0 0.0 0.00 0.00 0.00 91 1023.6
20260905101019 92 0.0 0.0 0.00 0.00 0.00 90 1023.4
20260905100019 90 0.0 0.0 0.00 0.00 0.00 90 1023.5
20260905095019 92 0.0 0.0 0.00 0.00 0.00 88 1023.4
20260905094019 91 0.0 0.0 0.00 0.00 0.00 88 1023.5
20260905093019 92 0.0 0.0 0.00 0.00 0.00 85 1023.4
20260905092019 91 0.0 0.0 0.00 0.00 0.00 79 1023.2
20260905091019 90 0.0 0.0 0.00 0.00 0.00 79 1023.0
20260905090019 90 0.0 0.0 0.00 0.00 0.00 85 1023.0
20260905085019 88 0.0 0.0 0.00 0.00 0.00 91 1023.0
20260905084019 86 0.0 0.0 0.00 0.00 0.00 94 1023.0
20260905083019 85 0.0 0.0 0.00 0.00 0.00 98 1022.9
20260905082019 83 0.0 0.0 0.00 0.00 0.00 10 1022.8
20260905081019 81 0.0 0.0 0.00 0.00 0.00 10 1022.6
20260905080019 79 0.0 0.0 0.00 0.00 0.00 10 1022.5
20260905075019 77 0.0 0.0 0.00 0.00 0.00 10 1022.4
20260905074018 75 0.0 0.0 0.00 0.00 0.00 10 1022.3
20260905073020 73 0.0 0.0 0.00 0.00 0.00 10 1022.3
20260905072018 72 0.0 0.0 0.00 0.00 0.00 10 1022.2
20260905071019 71 0.0 0.0 0.00 0.00 0.00 10 1022.1
20260905064018 69 0.0 0.0 0.00 0.00 0.00 10 1021.6
20260905063018 68 0.0 0.0 0.00 0.00 0.00 10 1021.6
20260905062018 67 0.0 0.0 0.00 0.00 0.00 10 1021.5
20260905061018 66 0.0 0.0 0.00 0.00 0.00 10 1021.4
20260905060018 66 0.0 0.0 0.00 0.00 0.00 10 1021.4
20260905055018 65 0.0 0.0 0.00 0.00 0.00 10 1021.4
20260905054018 64 0.0 0.0 0.00 0.00 0.00 10 1021.2
20260905053018 64 0.0 0.0 0.00 0.00 0.00 10 1021.1
20260905052018 63 0.0 0.0 0.00 0.00 0.00 10 1021.1
20260905051018 62 0.0 0.0 0.00 0.00 0.00 10 1021.1
20260905050018 62 0.0 0.0 0.00 0.00 0.00 10 1021.2
20260905045018 62 0.0 0.0 0.00 0.00 0.00 10 1021.1
20260905044018 62 0.0 0.0 0.00 0.00 0.00 10 1021.0
20260905043018 62 0.0 0.0 0.00 0.00 0.00 10 1020.9
20260905042018 62 0.0 0.0 0.00 0.00 0.00 10 1020.9
20260905041018 62 0.0 0.0 0.00 0.00 0.00 10 1020.8
20260905040018 62 0.0 0.0 0.00 0.00 0.00 10 1020.9
20260905035018 63 0.0 0.0 0.00 0.00 0.00 10 1020.8
20260905034018 63 0.0 0.0 0.00 0.00 0.00 10 1020.8
20260905033018 63 0.0 0.0 0.00 0.00 0.00 10 1020.8
20260905032018 63 0.0 0.0 0.00 0.00 0.00 10 1020.8
20260905031018 63 0.0 0.0 0.00 0.00 0.00 10 1020.9
20260905030018 64 0.0 0.0 0.00 0.00 0.00 10 1021.0
20260905025018 63 0.0 0.0 0.00 0.00 0.00 10 1020.8
20260905024018 64 0.0 0.0 0.00 0.00 0.00 10 1020.9
20260905023018 64 0.0 0.0 0.00 0.00 0.00 10 1020.9
20260905022018 62 0.0 0.0 0.00 0.00 0.00 10 1020.9
20260905021018 63 0.0 0.0 0.00 0.00 0.00 10 1021.0
20260905020018 64 0.0 0.0 0.00 0.00 0.00 10 1021.1
20260905015018 65 0.0 0.0 0.00 0.00 0.00 10 1021.2